User: anonymous   Login
Location: Newark
(48.1500°N, 13.1167°E)
Time: 22:08:01
(UTC+00:00)
Language:

METEOR M2 - Orbit

View from above orbital plane
View from above orbital plane
View from above satellite
View from above satellite

Ground track
Ground track

The orbit data is extracted from the following two-line orbital elements,

1 40069U 14037A   21339.36502304  .00000002  00000-0  20052-4 0  9990
2 40069  98.4474   0.8875 0006107 155.1858 204.9613 14.20692838384308
Epoch (UTC): 05 December 2021 08:45:37
Eccentricity: 0.0006107
inclination: 98.4474°
perigee height: 818 km
apogee height: 827 km
right ascension of ascending node: 0.8875°
argument of perigee: 155.1858°
revolutions per day: 14.20692838
mean anomaly at epoch: 204.9613°
orbit number at epoch: 38430

The dashed part of the orbit path shows where the satellite is in the earth's shadow,  

DLR